TimeMDT,TemperatureF,Dew PointF,Humidity,Sea Level PressureIn,VisibilityMPH,Wind Direction,Wind SpeedMPH,Gust SpeedMPH,PrecipitationIn,Events,Conditions,WindDirDegrees,DateUTC
12:15 AM,50.0,35.6,58,29.92,10.0,Calm,Calm,-,N/A,,Mostly Cloudy,0,2013-05-15 06:15:00
12:35 AM,48.2,35.6,62,29.92,10.0,Calm,Calm,-,N/A,,Mostly Cloudy,0,2013-05-15 06:35:00
12:55 AM,46.4,35.6,66,29.93,10.0,SSW,4.6,-,N/A,,Mostly Cloudy,200,2013-05-15 06:55:00
1:15 AM,46.4,35.6,66,29.92,10.0,Calm,Calm,-,N/A,,Mostly Cloudy,0,2013-05-15 07:15:00
1:35 AM,46.4,37.4,71,29.92,10.0,South,5.8,-,N/A,,Overcast,180,2013-05-15 07:35:00
1:55 AM,44.6,37.4,76,29.93,10.0,SSW,4.6,-,N/A,,Overcast,200,2013-05-15 07:55:00
2:15 AM,46.4,35.6,66,29.93,10.0,Calm,Calm,-,N/A,,Mostly Cloudy,0,2013-05-15 08:15:00
2:35 AM,48.2,35.6,62,29.93,10.0,Calm,Calm,-,N/A,,Scattered Clouds,0,2013-05-15 08:35:00
2:55 AM,48.2,35.6,62,29.94,10.0,Calm,Calm,-,N/A,,Mostly Cloudy,0,2013-05-15 08:55:00
3:15 AM,50.0,35.6,58,29.94,10.0,Calm,Calm,-,N/A,,Overcast,0,2013-05-15 09:15:00
3:35 AM,48.2,35.6,62,29.94,10.0,SW,4.6,-,N/A,Rain,Light Rain,220,2013-05-15 09:35:00
3:55 AM,48.2,35.6,62,29.95,10.0,WSW,9.2,-,N/A,,Mostly Cloudy,240,2013-05-15 09:55:00
4:15 AM,50.0,35.6,58,29.95,10.0,WSW,6.9,-,N/A,Rain,Light Rain,250,2013-05-15 10:15:00
4:35 AM,50.0,35.6,58,29.95,10.0,SW,8.1,-,N/A,Rain,Light Rain,230,2013-05-15 10:35:00
4:55 AM,51.8,35.6,54,29.94,10.0,SW,9.2,-,N/A,,Overcast,230,2013-05-15 10:55:00
5:15 AM,50.0,35.6,58,29.95,10.0,WSW,5.8,-,N/A,,Overcast,250,2013-05-15 11:15:00
5:35 AM,50.0,35.6,58,29.95,10.0,WNW,3.5,-,0.01,Rain,Light Rain,300,2013-05-15 11:35:00
5:55 AM,51.8,35.6,54,29.96,10.0,West,4.6,-,0.02,,Overcast,270,2013-05-15 11:55:00
6:15 AM,51.8,37.4,58,29.96,10.0,Calm,Calm,-,N/A,Rain,Light Rain,0,2013-05-15 12:15:00
6:35 AM,53.6,35.6,51,29.97,10.0,Calm,Calm,-,0.01,,Overcast,0,2013-05-15 12:35:00
6:55 AM,53.6,35.6,51,29.97,10.0,West,3.5,-,0.01,,Overcast,260,2013-05-15 12:55:00
7:15 AM,55.4,35.6,47,29.98,10.0,West,9.2,-,N/A,Rain,Light Rain,270,2013-05-15 13:15:00
7:35 AM,57.2,33.8,41,29.98,10.0,West,10.4,-,N/A,,Overcast,270,2013-05-15 13:35:00
7:55 AM,59.0,33.8,39,29.98,10.0,West,12.7,-,N/A,,Overcast,270,2013-05-15 13:55:00
8:15 AM,59.0,32.0,36,29.99,10.0,WNW,11.5,-,N/A,,Overcast,290,2013-05-15 14:15:00
8:35 AM,59.0,33.8,39,29.99,10.0,WNW,13.8,-,N/A,Rain,Light Rain,290,2013-05-15 14:35:00
8:55 AM,60.8,33.8,36,30.00,10.0,WNW,13.8,-,N/A,,Scattered Clouds,300,2013-05-15 14:55:00
9:15 AM,64.4,33.8,32,29.99,10.0,NW,12.7,-,N/A,,Mostly Cloudy,310,2013-05-15 15:15:00
9:35 AM,64.4,33.8,32,29.99,10.0,NW,13.8,20.7,N/A,,Scattered Clouds,320,2013-05-15 15:35:00
9:55 AM,64.4,32.0,30,29.99,10.0,NW,12.7,18.4,N/A,,Clear,310,2013-05-15 15:55:00
10:15 AM,66.2,32.0,28,29.99,10.0,NW,9.2,17.3,N/A,,Clear,320,2013-05-15 16:15:00
10:35 AM,66.2,32.0,28,29.99,10.0,NW,10.4,19.6,N/A,,Mostly Cloudy,320,2013-05-15 16:35:00
10:55 AM,66.2,32.0,28,29.99,10.0,NW,11.5,20.7,N/A,Rain,Light Rain,320,2013-05-15 16:55:00
11:15 AM,66.2,30.2,26,29.99,10.0,WNW,6.9,-,N/A,Rain,Light Rain,300,2013-05-15 17:15:00
11:35 AM,68.0,32.0,26,29.98,10.0,WNW,12.7,18.4,N/A,Rain,Light Rain,290,2013-05-15 17:35:00
11:55 AM,68.0,30.2,24,29.98,10.0,NW,9.2,20.7,N/A,,Clear,320,2013-05-15 17:55:00
12:15 PM,68.0,32.0,26,29.97,10.0,WNW,15.0,21.9,N/A,,Clear,300,2013-05-15 18:15:00
12:35 PM,69.8,32.0,25,29.97,10.0,NW,8.1,21.9,N/A,,Clear,320,2013-05-15 18:35:00
12:55 PM,69.8,32.0,25,29.96,10.0,NW,12.7,18.4,N/A,,Clear,310,2013-05-15 18:55:00
1:15 PM,69.8,32.0,25,29.96,10.0,NW,9.2,19.6,N/A,Rain,Light Rain,320,2013-05-15 19:15:00
1:35 PM,69.8,30.2,23,29.96,10.0,WSW,4.6,-,N/A,,Clear,240,2013-05-15 19:35:00
1:55 PM,71.6,32.0,23,29.96,10.0,NW,10.4,23.0,N/A,,Clear,320,2013-05-15 19:55:00
2:15 PM,69.8,30.2,23,29.95,10.0,West,8.1,-,N/A,,Clear,280,2013-05-15 20:15:00
2:35 PM,71.6,32.0,23,29.95,10.0,WNW,8.1,20.7,N/A,,Scattered Clouds,290,2013-05-15 20:35:00
2:55 PM,71.6,32.0,23,29.94,10.0,NW,13.8,18.4,N/A,,Partly Cloudy,310,2013-05-15 20:55:00
3:15 PM,71.6,30.2,22,29.93,10.0,NW,10.4,20.7,N/A,,Clear,310,2013-05-15 21:15:00
3:35 PM,71.6,32.0,23,29.93,10.0,NW,8.1,18.4,N/A,,Clear,320,2013-05-15 21:35:00
3:55 PM,71.6,30.2,22,29.92,10.0,West,8.1,-,N/A,,Clear,260,2013-05-15 21:55:00
4:15 PM,71.6,32.0,23,29.92,10.0,North,10.4,17.3,N/A,,Clear,350,2013-05-15 22:15:00
4:35 PM,71.6,32.0,23,29.92,10.0,WNW,5.8,-,N/A,,Clear,300,2013-05-15 22:35:00
4:55 PM,71.6,32.0,23,29.92,10.0,WNW,6.9,-,N/A,,Clear,300,2013-05-15 22:55:00
5:15 PM,71.6,32.0,23,29.91,10.0,NW,6.9,-,N/A,,Clear,310,2013-05-15 23:15:00
5:35 PM,71.6,32.0,23,29.91,10.0,North,8.1,-,N/A,,Clear,350,2013-05-15 23:35:00
5:55 PM,71.6,32.0,23,29.91,10.0,WNW,8.1,-,N/A,,Clear,300,2013-05-15 23:55:00
6:15 PM,71.6,33.8,25,29.90,10.0,NW,10.4,-,N/A,,Clear,310,2013-05-16 00:15:00
6:35 PM,69.8,32.0,25,29.90,10.0,North,8.1,-,N/A,,Clear,350,2013-05-16 00:35:00
6:55 PM,68.0,32.0,26,29.90,8.0,North,10.4,-,N/A,,Clear,350,2013-05-16 00:55:00
7:15 PM,66.2,32.0,28,29.89,10.0,North,6.9,-,N/A,,Clear,350,2013-05-16 01:15:00
7:35 PM,62.6,32.0,32,29.90,8.0,North,8.1,-,N/A,,Clear,350,2013-05-16 01:35:00
7:55 PM,62.6,32.0,32,29.90,4.0,NNE,5.8,-,N/A,,Haze,20,2013-05-16 01:55:00
8:15 PM,60.8,32.0,34,29.90,10.0,NNE,5.8,-,N/A,,Partly Cloudy,20,2013-05-16 02:15:00
8:35 PM,57.2,32.0,38,29.91,9.0,NE,5.8,-,N/A,,Clear,40,2013-05-16 02:35:00
8:55 PM,53.6,33.8,47,29.91,10.0,North,5.8,-,N/A,,Clear,10,2013-05-16 02:55:00
9:15 PM,53.6,32.0,44,29.92,6.0,NNE,6.9,-,N/A,,Haze,20,2013-05-16 03:15:00
9:35 PM,50.0,32.0,50,29.92,10.0,NNW,4.6,-,N/A,,Clear,340,2013-05-16 03:35:00
9:55 PM,50.0,32.0,50,29.92,10.0,NNW,6.9,-,N/A,,Partly Cloudy,340,2013-05-16 03:55:00
10:15 PM,50.0,32.0,50,29.92,10.0,North,3.5,-,N/A,,Scattered Clouds,10,2013-05-16 04:15:00
10:35 PM,50.0,32.0,50,29.92,10.0,North,3.5,-,N/A,,Mostly Cloudy,350,2013-05-16 04:35:00
10:55 PM,51.8,32.0,47,29.92,10.0,NE,3.5,-,N/A,,Mostly Cloudy,40,2013-05-16 04:55:00
11:15 PM,50.0,37.4,62,29.92,10.0,Calm,Calm,-,N/A,,Mostly Cloudy,0,2013-05-16 05:15:00
11:35 PM,50.0,39.2,66,29.92,10.0,Calm,Calm,-,N/A,,Overcast,0,2013-05-16 05:35:00
11:55 PM,51.8,37.4,58,29.92,10.0,Calm,Calm,-,N/A,,Overcast,0,2013-05-16 05:55:00